Lapse_Rate
0.4 0.4 0.1 -0.2 -0.3 -0.3 -0.3 -0.2 -0.1 -0.1 -0.3 -0.8 -1.1 -1.6 -2.0 -2.7 -2.8 -1.9 0.2 2.9 2.1 3.3 3.2 5.3 4.9 7.2 6.0 6.1 7.0 6.4 6.5 6.5 6.5 6.5 6.5 6.4 6.5 7.1 7.6 7.3 7.7 7.5 7.5 6.8 6.8
0.4 0.1 -0.1 -0.2 -0.0 -0.1 -0.1 -0.2 -0.1 -0.3 -0.4 -0.9 -1.3 -1.6 -2.0 -2.6 -3.3 -1.8 0.4 2.1 3.4 3.5 4.1 5.3 5.6 7.6 4.9 5.8 6.5 6.5 6.5 6.5 6.5 6.6 6.5 6.7 6.6 6.7 6.8 7.0 6.9 6.9 6.9 7.3 6.9
0.0 -0.2 -0.2 -0.5 -0.4 -0.3 -0.5 -0.2 -0.3 -0.4 -0.7 -1.0 -1.3 -1.6 -2.0 -2.5 -0.5 2.2 2.1 2.4 3.7 3.6 5.6 6.0 6.7 7.8 5.8 5.7 6.7 6.8 6.5 6.5 6.6 6.5 6.9 6.8 6.2 7.1 6.7 6.5 6.7 6.8 7.4 7.8 7.1
0.0 -0.3 -0.7 -0.6 -0.6 -0.7 -0.8 -0.8 -0.7 -0.7 -0.8 -1.0 -1.3 -1.5 -1.7 -2.4 6.5 6.3 3.2 2.0 3.2 4.3 6.0 6.5 6.6 6.6 6.4 6.5 6.6 6.5 6.8 6.9 7.0 5.5 7.0 6.7 6.5 6.6 6.6 6.6 6.3 7.1 7.7 6.9 7.4
-0.1 -0.3 -0.6 -0.8 -0.8 -0.8 -0.8 -1.1 -1.3 -1.3 -1.2 -1.1 -1.0 -0.9 -1.1 2.5 2.1 3.9 3.0 2.8 3.3 4.5 5.1 5.8 6.0 6.5 6.5 6.4 6.7 6.5 6.6 7.0 7.3 7.3 6.0 6.8 6.2 6.5 6.5 7.4 7.1 7.7 7.6 6.5 7.1
-0.2 -0.3 -0.7 -0.9 -0.8 -0.7 -0.8 -1.2 -1.4 -1.6 -1.4 -1.2 -0.9 -0.7 0.1 6.0 5.3 3.3 2.6 2.6 4.0 4.3 4.7 5.3 5.0 5.9 5.8 6.5 6.5 6.9 6.8 6.9 7.1 6.2 7.0 6.5 6.3 6.0 6.7 7.7 7.4 7.8 7.1 6.9 6.6
-0.4 -0.6 -0.9 -1.0 -1.0 -1.2 -1.2 -1.3 -1.7 -1.8 -1.7 -1.2 -0.9 0.1 1.7 2.3 5.9 4.2 3.2 2.3 3.5 3.0 4.1 4.9 5.8 6.6 5.8 6.4 6.4 6.9 6.5 6.5 6.7 6.8 6.3 6.2 6.5 6.5 6.0 7.2 6.9 6.9 7.1 6.9 6.9
-0.6 -0.8 -1.0 -1.2 -1.5 -1.6 -1.7 -2.0 -1.9 -1.9 -1.9 -1.3 -0.4 -0.1 0.8 3.8 3.9 4.6 4.5 4.3 3.9 3.7 3.5 4.4 6.1 6.4 6.6 6.1 6.8 6.5 6.5 6.5 6.5 6.6 6.2 6.6 6.5 6.5 5.7 6.9 6.1 6.3 6.7 7.1 6.9
-0.9 -1.1 -1.2 -1.7 -2.1 -2.5 -2.8 -2.8 -2.0 -1.1 -1.0 -1.1 -0.2 1.7 2.1 3.8 4.6 4.9 5.2 6.2 4.4 3.7 3.8 6.8 7.3 5.2 6.0 6.5 6.5 6.5 6.5 6.5 6.5 6.6 6.5 6.5 6.5 6.3 5.6 6.3 6.3 6.0 6.9 7.1 6.4
-1.0 -1.3 -1.7 -2.1 -2.5 -3.0 -3.5 -3.7 -2.7 -1.3 -0.5 1.2 2.6 4.1 2.6 5.1 6.1 6.6 5.6 6.9 5.8 5.6 6.4 6.2 5.2 6.5 6.5 6.5 6.5 6.5 6.5 6.5 6.5 6.5 6.5 6.5 6.5 6.5 6.0 5.1 5.6 5.5 6.5 7.1 6.7
-1.1 -1.6 -2.5 -2.7 -3.5 -3.9 -5.1 -2.3 1.3 2.3 2.1 3.7 3.5 4.5 5.3 5.4 6.1 6.9 7.0 7.0 6.7 5.7 6.5 5.5 6.5 6.5 6.5 6.5 6.5 6.5 6.5 6.5 6.5 6.5 6.5 6.5 6.5 6.5 6.1 5.9 6.2 5.1 6.6 6.7 6.1
-1.1 -2.0 -2.6 -3.1 -4.0 -4.4 -6.0 -0.5 2.2 5.9 5.0 2.2 3.9 5.0 5.3 5.4 6.6 7.3 6.1 6.2 5.5 6.5 6.4 6.5 6.5 6.5 6.5 6.5 6.5 6.5 6.5 6.5 6.5 6.5 6.5 6.5 6.5 6.5 6.5 6.3 6.1 5.2 6.0 6.3 5.1
-1.4 -2.1 -2.9 -3.4 -4.2 -5.0 -3.4 0.6 2.6 4.7 4.9 5.4 4.3 4.4 5.2 5.8 5.6 5.7 5.6 5.7 6.4 6.5 6.5 6.5 6.5 6.5 6.5 6.5 6.5 6.5 6.5 6.5 6.5 6.5 6.5 6.5 6.5 6.5 6.5 6.4 4.7 4.6 4.3 4.0 4.8
-1.6 -1.8 -3.0 -4.3 -2.1 -2.2 0.3 3.1 3.5 3.6 6.5 6.5 6.1 6.0 6.6 6.6 6.3 6.6 5.6 5.8 6.4 6.5 6.5 6.5 6.4 6.5 6.5 6.5 6.5 6.5 6.5 6.5 6.5 6.5 6.5 6.5 6.5 6.5 6.5 6.5 6.3 6.1 4.1 3.2 3.7
-1.9 -2.2 -3.0 -4.7 -5.1 -0.9 4.2 0.5 2.7 3.6 6.5 6.5 6.2 6.6 6.1 5.4 6.2 6.1 5.9 5.9 6.5 6.5 6.5 6.5 6.5 6.5 6.5 6.5 6.5 6.5 6.5 6.5 6.5 6.5 6.5 6.5 6.5 6.5 6.5 6.5 6.5 6.5 5.2 4.1 3.8
-2.1 -2.9 -3.6 -4.6 -5.8 -3.7 -0.8 0.4 2.4 6.5 6.5 6.5 6.3 6.4 6.5 6.1 6.0 6.8 6.3 6.0 6.2 6.5 6.5 6.5 5.9 6.4 6.5 6.5 6.5 6.5 6.5 6.5 6.5 6.5 6.5 6.5 6.5 6.5 6.5 6.5 6.5 6.5 6.5 5.6 4.0
-3.0 -4.0 -4.6 -3.2 0.1 0.9 1.4 2.1 6.5 6.5 6.5 6.5 6.5 6.5 6.5 6.5 6.5 6.5 6.5 6.5 6.5 6.5 6.5 6.5 6.5 6.5 6.3 6.5 6.5 6.5 6.5 6.5 6.5 6.5 6.5 6.5 6.5 6.5 6.5 6.5 6.5 6.5 6.2 6.6 4.8
-4.3 -5.5 -5.9 -4.5 -3.0 -0.7 1.4 6.0 6.5 6.5 6.5 6.5 6.5 6.5 6.5 6.5 6.5 6.5 6.5 6.5 6.5 6.5 6.5 6.5 6.5 6.5 6.5 6.5 6.5 6.5 6.5 6.5 6.5 6.5 6.5 6.5 6.5 6.5 6.5 6.4 6.1 5.8 6.4 5.9 5.9
-5.7 -6.6 -5.4 -3.6 -3.7 -1.7 2.4 6.5 6.5 6.5 6.5 6.5 6.5 6.5 6.5 6.5 6.5 6.5 6.5 6.5 6.5 6.5 6.5 6.5 6.5 6.5 6.5 6.5 6.5 6.5 6.5 6.5 6.5 6.5 6.5 6.5 6.5 6.5 6.5 6.5 5.8 5.5 5.7 5.7 5.4
-5.2 -2.1 0.1 2.7 0.4 1.2 5.5 6.5 6.5 6.4 6.5 6.5 6.5 6.5 6.5 6.5 6.5 6.5 6.5 6.5 6.5 6.5 5.7 6.5 6.5 6.5 6.5 6.4 6.4 6.5 6.5 6.5 6.5 6.5 6.5 6.5 6.5 6.5 6.5 6.5 6.5 6.4 5.6 5.5 5.2
-2.6 2.1 2.1 2.6 2.2 1.9 6.5 6.5 6.5 5.1 6.2 6.5 6.5 6.5 6.5 6.5 6.5 6.5 6.5 6.5 6.5 6.5 6.2 6.5 6.5 6.5 6.5 6.5 6.5 6.5 6.5 6.5 6.5 6.5 6.5 6.5 6.5 6.5 6.5 6.5 6.5 6.1 5.7 5.1 5.6
-2.1 6.0 2.6 3.0 4.3 3.9 6.5 6.5 4.4 6.0 4.6 6.4 6.5 6.5 6.5 6.5 6.5 6.5 6.5 6.5 6.0 5.9 6.5 6.5 6.5 6.5 6.5 6.5 6.5 6.5 6.5 6.5 6.5 6.5 6.5 6.5 6.5 6.5 6.5 6.3 6.2 6.4 5.2 6.0 5.0
-0.0 1.5 2.9 3.3 6.5 6.5 5.9 6.5 6.2 6.5 6.5 6.5 6.5 6.5 6.5 6.5 6.5 6.5 6.5 6.4 5.5 6.4 6.5 6.5 6.5 6.5 6.5 6.5 6.5 6.5 6.5 6.5 6.5 6.5 6.5 6.5 6.5 6.5 6.2 6.1 5.2 5.3 3.9 4.0 5.8
0.1 6.5 1.4 1.9 1.2 6.4 6.5 6.5 6.5 6.0 6.4 6.1 6.5 5.9 6.5 6.5 6.5 6.5 6.5 6.5 6.5 6.3 3.3 5.3 6.5 6.5 6.5 6.5 6.5 6.5 6.5 6.5 6.5 6.5 6.5 6.5 6.5 6.5 6.5 6.5 5.6 3.8 4.5 3.6 3.3
0.6 4.7 4.6 6.5 5.6 6.2 6.3 6.5 6.5 6.5 5.4 4.7 6.5 6.5 6.5 6.5 6.5 6.5 6.5 6.5 6.2 4.7 5.2 6.5 6.5 6.5 6.5 6.5 6.5 6.5 6.5 6.5 6.5 6.5 6.5 6.5 6.5 6.5 6.5 6.5 6.0 5.8 4.8 3.0 2.1
2.5 4.2 3.0 3.9 4.2 6.3 6.5 6.5 6.5 6.5 6.5 6.5 6.5 6.5 6.5 6.5 6.5 6.5 6.5 6.5 6.5 6.4 6.5 6.4 6.5 6.5 6.5 6.5 6.5 6.5 6.5 6.5 6.5 6.5 6.5 6.5 6.5 6.5 6.0 5.3 5.1 4.1 6.1 5.8 5.8
1.7 2.3 3.5 3.3 5.8 6.5 6.5 6.5 6.5 6.2 5.4 5.5 6.0 6.5 6.5 6.4 5.6 5.2 4.8 4.4 5.3 6.5 6.5 6.5 6.5 6.5 6.5 6.5 6.5 6.5 6.5 6.5 6.5 6.5 6.5 6.5 6.5 6.4 6.5 6.3 5.6 5.1 5.8 5.4 5.5
Wind_Speed
11 11 11 11 10 10 10 10 10 11 11 12 12 13 15 17 17 3 5 10 7 12 6 1 5 3 3 4 2 2 4 4 5 3 2 5 11 9 13 22 15 6 17 15 17
12 11 12 12 11 11 10 10 11 11 11 11 12 13 14 16 3 7 13 15 16 16 4 6 5 8 2 5 3 4 2 4 3 5 7 4 15 19 15 13 15 19 18 21 20
13 12 12 12 12 11 11 11 11 11 11 11 11 13 14 13 4 6 10 18 16 19 5 2 2 5 6 3 4 2 2 2 0 3 4 4 2 8 17 7 21 26 23 21 17
13 13 12 12 12 12 11 11 11 10 10 10 10 12 14 3 2 3 7 24 14 9 2 2 1 3 3 8 8 7 11 8 5 8 4 8 4 10 17 15 25 26 26 21 18
14 13 12 13 13 12 11 11 11 10 10 10 10 10 4 1 8 3 12 22 7 4 5 5 6 4 4 9 10 5 11 12 12 17 10 8 2 12 14 18 25 23 24 20 17
13 13 13 14 13 12 11 11 10 10 9 9 9 10 1 3 4 14 11 8 7 6 5 6 6 5 5 2 10 16 11 13 11 5 6 4 4 10 11 19 22 23 20 18 19
15 14 13 14 14 13 12 11 11 10 8 7 7 4 1 11 4 8 10 9 5 8 5 9 5 1 5 5 6 15 10 5 11 8 5 2 6 4 12 11 15 14 18 20 21
16 16 15 15 15 15 13 13 11 9 7 6 3 2 7 6 9 5 6 3 6 6 7 7 3 5 5 2 5 8 8 8 10 11 6 2 5 3 3 14 11 11 16 16 20
16 16 16 15 14 16 16 16 12 7 5 4 1 1 9 13 3 7 10 6 6 6 7 11 2 7 3 3 3 4 3 4 6 3 4 1 7 5 2 12 11 10 16 15 12
17 17 16 15 15 17 22 16 5 4 3 5 6 3 6 4 4 5 7 7 5 3 3 5 2 2 3 3 5 8 7 6 8 4 3 3 2 2 3 7 3 5 18 16 17
18 18 18 17 16 15 10 2 2 1 3 8 6 5 6 4 1 4 5 5 2 3 4 3 3 5 10 7 3 5 2 8 4 6 6 5 7 6 5 4 3 4 14 18 17
19 19 19 19 16 15 3 1 6 1 8 12 15 9 10 4 3 2 8 4 6 6 2 4 5 11 7 3 8 10 2 5 4 5 1 4 4 4 4 3 3 4 17 14 7
19 20 21 21 22 4 3 7 5 10 3 8 5 5 5 6 6 6 7 4 3 2 2 6 11 11 6 8 12 4 7 9 6 8 3 4 3 6 0 3 8 2 0 7 15
19 21 21 28 2 3 5 5 5 7 4 6 2 6 4 3 3 6 8 6 1 9 6 7 13 12 8 10 6 5 3 11 12 9 3 5 3 2 4 5 6 8 5 6 10
20 20 18 9 5 2 7 11 10 3 4 1 2 3 3 6 2 3 6 3 4 4 5 9 5 6 8 11 4 6 16 9 10 5 4 3 4 5 8 13 17 14 12 8 7
21 17 17 3 3 8 17 11 4 5 3 3 4 3 3 4 5 2 4 3 2 4 6 10 6 6 8 9 11 15 17 7 5 3 3 9 3 4 10 28 17 12 14 12 7
23 18 7 5 5 9 7 4 5 4 5 3 3 1 4 3 7 5 5 4 4 1 3 6 6 4 9 11 14 16 10 1 3 3 2 10 3 6 5 16 17 16 11 15 14
28 19 6 7 6 10 4 5 5 4 5 4 5 10 5 5 3 4 2 3 5 4 2 2 7 4 2 10 13 12 8 4 5 4 4 4 5 3 7 10 14 14 14 8 11
27 1 2 5 13 4 5 4 5 5 1 4 6 7 4 4 4 10 4 7 5 8 5 0 5 5 4 4 9 6 6 10 5 2 3 5 1 4 4 8 12 11 15 15 13
2 2 4 6 16 4 4 4 4 4 3 5 4 3 4 1 6 6 4 6 5 5 7 6 3 2 7 3 3 7 5 3 3 3 4 3 4 5 9 11 14 14 16 13 15
2 3 4 12 4 5 2 6 6 8 3 3 5 4 3 4 3 2 4 6 7 10 2 5 4 8 2 3 7 3 2 4 4 4 5 3 4 4 13 6 9 2 3 11 19
3 3 3 5 3 1 2 5 7 7 7 3 3 2 4 8 8 5 2 4 6 6 4 4 5 2 6 8 3 5 3 3 5 6 3 4 4 5 6 7 9 4 4 4 5
2 3 3 5 1 2 6 7 4 5 5 4 4 3 6 1 3 4 4 5 9 4 2 4 4 3 8 7 9 7 3 1 2 2 3 5 4 5 8 8 7 8 5 4 1
2 3 4 3 1 3 5 6 1 4 3 3 3 7 4 5 6 1 2 1 1 4 4 2 5 5 4 5 2 4 6 5 3 2 2 2 4 4 5 3 4 5 2 4 8
2 4 3 3 6 6 3 7 3 3 6 9 7 6 4 4 4 5 5 6 6 8 7 5 4 2 2 2 3 3 7 10 7 5 4 3 5 2 1 2 5 5 6 4 11
0 2 4 3 5 5 1 4 8 3 6 4 11 11 10 6 2 3 3 3 4 5 5 5 1 2 6 6 6 7 16 19 12 12 11 9 6 2 4 2 2 6 5 8 10
3 4 3 5 6 5 3 5 1 6 10 7 12 7 8 5 4 5 3 2 6 0 2 3 3 3 3 6 3 8 7 17 13 12 3 4 2 3 4 3 5 6 10 11 11
Wind_Direction
346 345 339 337 331 322 316 308 309 313 317 322 327 328 328 327 320 129 237 221 192 203 205 215 198 177 76 335 118 98 39 333 37 1 77 303 148 136 130 131 145 110 136 135 146
349 346 344 337 329 322 314 308 309 311 315 322 325 329 329 333 304 245 235 220 227 206 215 179 197 178 121 194 27 73 41 327 31 290 161 263 136 134 135 134 113 113 127 142 141
349 345 342 338 330 323 318 315 313 314 317 320 326 327 325 329 319 252 216 201 215 177 229 203 309 235 183 83 43 64 190 96 328 282 245 274 218 123 136 171 142 143 148 146 150
345 342 338 338 333 328 324 318 316 316 318 321 327 326 319 284 224 286 298 183 182 176 239 160 237 197 203 150 163 128 249 238 211 242 296 265 174 147 161 163 148 151 152 150 162
344 338 332 334 336 332 328 323 320 319 316 319 323 327 352 313 250 167 108 159 155 166 209 196 183 182 208 159 145 174 224 220 217 191 242 236 133 161 154 149 153 149 149 153 154
341 338 337 336 336 335 330 325 318 314 313 318 321 323 345 282 241 141 126 137 162 177 212 199 214 180 294 197 174 179 165 190 206 222 280 109 3 115 148 141 158 150 156 153 155
342 342 341 337 335 333 325 317 311 306 305 313 320 295 268 237 13 135 151 179 187 184 209 221 255 240 331 305 102 129 120 147 226 233 220 19 72 61 132 175 154 142 147 151 163
345 344 341 337 334 327 321 311 302 301 291 286 299 314 246 255 241 222 200 219 191 229 214 248 211 273 232 161 118 134 113 188 196 202 196 162 169 170 243 170 172 142 157 149 150
343 340 337 335 335 328 317 305 289 287 258 254 251 139 270 309 179 225 160 202 188 232 256 263 247 206 322 79 69 108 155 262 260 236 146 133 165 181 17 181 184 145 155 154 140
341 336 334 334 328 330 317 294 260 311 205 207 260 316 279 257 235 214 177 198 184 199 328 222 198 143 61 98 215 173 177 218 203 12 253 105 162 185 147 115 125 84 159 158 154
340 341 338 336 337 337 351 12 26 29 220 208 203 231 271 240 353 213 197 156 142 108 192 263 95 210 216 212 64 289 12 155 126 359 223 202 186 214 162 129 98 95 173 166 169
340 342 335 330 327 323 314 207 222 136 310 223 246 250 266 238 140 230 124 152 143 197 198 17 214 233 223 242 245 272 174 69 92 236 209 9 292 289 172 182 107 127 156 170 124
340 340 333 325 316 297 206 229 231 46 311 297 193 202 233 140 176 221 134 176 155 172 210 180 235 236 219 246 257 158 150 178 179 117 50 183 132 295 44 116 74 28 10 137 148
333 337 336 326 341 334 260 301 281 167 39 279 239 265 253 129 275 186 183 147 254 197 222 229 257 236 231 231 224 98 286 154 132 140 161 349 144 314 295 257 171 190 222 168 139
322 329 331 329 299 280 249 343 300 79 14 315 216 208 188 150 145 264 162 95 239 236 100 244 247 203 234 226 141 148 147 143 141 77 102 330 89 238 288 252 221 186 199 199 173
314 316 329 92 217 248 312 306 36 48 308 304 153 178 76 343 317 243 157 179 207 261 265 249 268 174 219 209 123 130 95 91 77 107 108 219 227 218 217 227 221 220 181 191 179
309 300 297 287 228 359 329 27 50 96 310 303 184 92 87 349 351 25 199 175 181 39 310 320 279 265 218 87 105 109 96 7 4 5 230 192 259 249 261 227 217 218 211 188 183
313 300 242 228 259 3 27 47 66 254 235 300 73 66 52 349 342 327 283 258 248 131 348 272 329 163 218 146 154 144 156 174 175 177 162 189 242 242 290 208 171 192 184 187 181
320 82 244 252 206 165 67 40 209 224 201 111 42 66 347 337 41 19 289 225 239 171 192 312 274 325 314 164 133 124 177 184 120 337 80 175 55 320 282 114 137 162 163 177 189
343 327 261 143 152 75 68 238 249 220 207 81 117 161 5 342 35 8 320 307 276 242 177 247 348 304 294 105 77 139 177 70 3 154 218 183 157 187 230 190 165 165 174 183 183
7 30 256 131 94 55 156 237 283 278 150 124 186 152 186 127 160 239 279 292 332 336 339 122 96 298 19 152 181 43 35 71 128 145 172 171 236 52 227 190 160 207 278 186 180
340 24 309 99 60 208 210 220 280 16 10 67 99 126 144 167 192 188 281 229 349 339 5 322 129 269 246 314 237 112 28 100 125 268 184 144 255 2 62 63 79 61 100 314 314
358 268 313 99 206 260 294 291 236 47 20 28 58 298 115 255 31 1 291 352 328 360 20 305 49 15 347 355 6 40 7 78 211 80 219 126 249 34 52 46 12 48 11 151 111
13 7 320 24 147 238 295 298 246 35 50 88 52 60 74 80 34 72 326 243 121 318 53 86 72 140 168 202 180 333 339 41 105 75 199 191 136 42 34 53 8 7 313 230 160
166 253 212 278 293 244 197 243 129 49 359 19 4 37 126 75 50 8 357 359 357 3 12 81 81 330 274 255 206 242 28 23 21 283 147 109 105 143 296 208 329 335 357 153 160
41 37 341 273 272 302 192 347 119 156 99 22 85 58 59 87 131 355 357 38 254 360 30 4 358 88 2 359 322 70 47 49 49 59 72 80 63 212 64 7 344 2 12 29 51
313 337 105 278 325 28 269 147 131 118 23 111 116 81 30 326 255 253 217 264 250 174 73 72 96 53 305 319 345 42 0 58 53 31 68 43 59 49 61 28 349 31 46 53 55